DW5914 Weather Reports


Display with metric or nautical units.
time (UTC)temp
F
wind
direction
speed
MPH
gust
MPH
rain 1hr
in
rain 24hr
in
rain mn
in
humidity
%
barometer
mb
20260905191505 59 69 2.0 5.0 0.00 0.00 0.00 86 1019.5
20260905190004 60 342 3.0 5.0 0.00 0.00 0.00 85 1019.6
20260905184504 60 305 2.0 6.0 0.00 0.00 0.00 84 1019.6
20260905183004 60 360 2.0 6.0 0.00 0.00 0.00 84 1019.7
20260905181500 62 134 1.0 5.0 0.00 0.00 0.00 80 1019.7
20260905180058 61 298 2.0 5.0 0.00 0.00 0.00 83 1019.7
20260905174558 59 34 0.0 4.0 0.00 0.00 0.00 85 1019.7
20260905173053 60 348 2.0 4.0 0.00 0.00 0.00 85 1019.8
20260905171552 59 355 2.0 4.0 0.00 0.00 0.00 85 1019.8
20260905170048 58 47 2.0 4.0 0.00 0.00 0.00 86 1019.9
20260905164549 58 41 2.0 5.0 0.00 0.00 0.00 87 1019.9
20260905163045 58 35 1.0 3.0 0.00 0.00 0.00 87 1019.9
20260905161542 57 309 0.0 0.0 0.00 0.00 0.00 89 1019.8
20260905160040 56 130 0.0 0.0 0.00 0.00 0.00 90 1019.7
20260905154540 56 145 0.0 0.0 0.00 0.00 0.00 92 1019.5
20260905153040 55 147 0.0 0.0 0.00 0.00 0.00 92 1019.6
20260905151539 55 147 0.0 0.0 0.00 0.00 0.00 92 1019.7
20260905150038 54 147 0.0 0.0 0.00 0.00 0.00 92 1019.5
20260905144542 54 147 0.0 0.0 0.00 0.00 0.00 92 1019.6
20260905143037 55 147 0.0 0.0 0.00 0.00 0.00 91 1019.5
20260905141542 55 40 2.0 8.0 0.00 0.00 0.00 92 1019.5
20260905140034 54 149 0.0 0.0 0.00 0.00 0.00 92 1019.3
20260905134535 55 179 1.0 9.0 0.00 0.00 0.00 93 1019.2
20260905133031 54 123 1.0 3.0 0.00 0.00 0.00 94 1019.2
20260905131545 54 186 2.0 4.0 0.00 0.00 0.00 94 1019.2
20260905130033 55 186 0.0 3.0 0.00 0.00 0.00 94 1019.1
20260905124537 55 92 1.0 2.0 0.00 0.00 0.00 94 1019.1
20260905123024 56 92 0.0 2.0 0.00 0.00 0.00 94 1018.9
20260905121530 56 91 0.0 0.0 0.00 0.00 0.00 94 1018.9
20260905120022 56 91 0.0 0.0 0.00 0.00 0.00 93 1018.8
20260905114536 56 91 0.0 0.0 0.00 0.00 0.00 93 1018.9
20260905113021 56 91 0.0 0.0 0.00 0.00 0.00 93 1018.8
20260905111524 56 92 0.0 1.0 0.00 0.00 0.00 93 1018.7
20260905110020 56 92 1.0 3.0 0.00 0.00 0.00 93 1018.7
20260905104520 56 54 0.0 0.0 0.00 0.00 0.00 93 1018.8
20260905103028 56 53 0.0 2.0 0.00 0.00 0.00 93 1018.8
20260905101526 56 52 0.0 0.0 0.00 0.00 0.00 93 1018.6
20260905100016 56 52 0.0 2.0 0.00 0.00 0.00 92 1018.6
20260905094515 57 50 0.0 0.0 0.00 0.00 0.00 93 1018.6
20260905093014 57 51 0.0 3.0 0.00 0.00 0.00 93 1018.6
20260905091513 57 75 2.0 4.0 0.00 0.00 0.00 93 1018.5
20260905090011 57 80 0.0 3.0 0.00 0.00 0.00 93 1018.3
20260905084530 57 94 1.0 5.0 0.00 0.00 0.00 93 1018.3
20260905083016 56 63 0.0 0.0 0.00 0.00 0.00 92 1018.2